Temp
63 68 77 77 76 76 77 77 77 77 76 77 76 75 75 76 76 76 76 75 75 75 76 76 75 75 74 75 75 76 77 77 76 76 76 76 76 77 77 76 76 76 78
67 70 77 77 77 77 77 76 76 77 76 75 76 75 75 75 76 76 75 75 74 75 77 76 76 74 74 74 74 76 77 77 76 75 75 75 75 76 77 76 76 76 77
70 72 74 77 77 77 77 76 76 76 76 76 75 75 75 74 75 75 75 75 74 74 74 75 75 74 74 73 74 76 77 76 75 75 74 67 70 76 77 76 76 77 76
71 71 71 77 77 77 77 76 76 76 75 75 75 74 75 75 75 75 74 74 74 74 74 74 74 73 73 73 74 74 75 76 74 73 67 70 74 76 76 75 76 76 76
70 71 72 77 77 76 76 76 76 75 75 75 75 75 74 74 74 74 73 73 73 73 73 73 73 73 72 72 73 73 74 75 73 69 65 65 72 75 75 74 75 76 75
70 70 74 77 77 77 76 75 76 75 75 74 74 74 74 74 73 73 72 72 72 73 72 72 72 72 72 72 72 72 73 73 69 63 63 67 70 75 75 74 74 74 75
69 70 73 76 76 76 76 75 75 74 74 74 73 73 72 72 72 71 71 71 71 71 71 72 72 72 71 72 71 72 72 72 63 61 61 62 66 74 75 74 74 74 74
68 70 72 76 76 76 75 75 75 74 73 72 72 72 72 71 71 71 71 71 71 71 71 71 71 71 71 71 71 71 71 71 64 60 60 61 71 73 73 73 73 73 73
70 69 67 69 73 75 75 75 74 74 72 71 71 71 70 70 70 69 70 70 70 70 70 70 70 70 70 70 70 70 70 70 58 59 64 60 72 72 72 72 72 72 72
68 68 64 64 67 67 67 74 74 73 72 71 71 70 70 69 69 69 69 70 70 70 70 70 69 69 69 69 69 69 69 68 57 58 58 61 71 72 72 71 71 71 71
67 67 66 64 64 64 64 69 72 73 72 71 69 69 67 58 60 63 66 69 69 69 69 69 69 69 69 69 69 69 69 57 57 57 57 69 70 71 71 71 71 71 71
63 65 66 66 65 63 71 64 61 64 61 61 61 59 58 56 57 63 65 69 69 68 69 69 69 70 68 57 57 65 57 57 57 57 57 70 70 70 71 71 71 71 71
63 65 67 66 66 65 67 62 59 59 58 59 60 58 57 60 57 56 54 57 55 64 57 61 59 58 56 56 56 56 58 57 56 57 63 70 70 70 70 70 71 71 71
63 64 65 67 66 63 64 63 61 61 59 57 58 59 56 54 55 55 54 53 53 54 53 54 54 56 57 59 58 59 60 58 57 57 59 70 70 70 70 70 71 71 71
65 65 64 64 64 64 63 61 61 61 61 59 58 59 57 56 56 55 55 54 54 54 55 55 55 57 57 58 59 60 60 60 59 58 55 69 70 70 70 70 71 71 71
67 67 65 65 63 63 61 59 60 59 60 59 57 58 60 57 56 56 56 56 55 55 56 55 56 56 57 57 59 60 60 60 60 59 56 58 69 69 70 70 70 71 71
68 69 66 66 64 62 61 61 59 59 61 58 57 59 60 59 57 58 56 55 56 56 57 56 57 56 55 58 57 59 59 60 60 60 58 56 60 68 69 69 70 70 70
70 69 69 72 66 62 60 60 61 59 58 58 58 58 60 61 59 57 56 56 56 55 56 55 54 54 54 54 54 57 57 58 60 59 59 57 56 59 65 68 69 69 69
71 69 68 69 66 64 61 60 59 60 58 58 58 58 60 61 61 57 56 56 57 55 55 55 55 54 53 54 56 56 56 56 58 62 59 59 58 57 56 65 68 68 68
71 70 69 69 67 65 60 59 58 58 58 58 58 58 60 60 61 58 57 57 56 55 54 53 54 53 53 54 60 59 55 56 56 55 57 60 57 58 57 58 56 58 68
69 69 68 67 65 66 64 58 55 59 55 56 58 61 60 60 60 58 56 57 56 55 55 55 54 54 53 53 53 53 53 54 55 55 55 55 57 58 57 57 55 55 58
68 68 68 68 65 67 66 64 58 56 56 58 58 60 61 60 60 59 57 56 56 54 54 54 54 52 52 52 52 50 50 53 53 55 54 56 55 57 58 59 58 57 55
66 65 68 68 67 66 65 60 57 57 56 56 56 58 60 60 60 59 58 56 56 54 54 54 53 53 52 52 53 53 48 50 50 52 54 54 55 53 55 57 59 59 56
70 68 67 68 67 67 63 64 62 62 59 58 58 57 59 60 60 59 59 57 57 54 54 54 56 52 51 51 52 55 52 52 50 50 52 53 54 55 54 54 56 58 57
64 66 66 66 67 67 65 64 61 56 57 55 56 57 57 58 59 60 59 57 57 56 55 55 55 53 52 51 51 50 50 50 49 49 49 51 51 53 54 55 55 55 57
63 61 62 63 63 64 65 59 61 57 55 55 54 55 55 57 58 59 60 60 59 57 56 56 55 54 53 52 52 52 52 51 49 48 46 47 49 53 53 53 54 54 54
MSLP
1018.56 1018.22 1018.36 1018.56 1018.78 1018.94 1019.04 1019.22 1019.46 1019.47 1019.49 1019.40 1019.49 1019.57 1019.64 1019.50 1019.62 1019.43 1019.41 1019.43 1019.40 1019.21 1019.18 1019.14 1019.18 1019.33 1019.22 1019.11 1018.97 1018.83 1018.68 1018.77 1018.90 1018.86 1018.61 1018.65 1018.63 1018.58 1018.57 1018.69 1018.51 1018.36 1018.20
1017.88 1018.10 1018.34 1018.52 1018.62 1018.82 1019.07 1019.32 1019.39 1019.61 1019.75 1019.80 1019.71 1019.86 1019.90 1019.98 1019.73 1019.73 1019.76 1019.85 1019.78 1019.59 1019.41 1019.36 1019.55 1019.70 1019.75 1019.71 1019.59 1019.26 1019.09 1019.13 1019.28 1019.32 1019.19 1019.06 1019.10 1019.05 1019.00 1019.22 1018.98 1018.93 1018.92
1017.72 1018.10 1018.36 1018.48 1018.63 1018.92 1019.18 1019.49 1019.53 1019.66 1019.75 1019.92 1020.06 1020.10 1020.30 1020.33 1020.04 1020.23 1020.23 1020.21 1020.10 1020.09 1020.02 1019.98 1019.95 1020.26 1020.21 1020.21 1020.07 1019.71 1019.40 1019.63 1019.50 1019.65 1019.62 1019.65 1019.52 1019.58 1019.45 1019.61 1019.53 1019.54 1019.43
1017.69 1018.11 1018.35 1018.42 1018.78 1019.07 1019.37 1019.57 1019.81 1019.89 1020.08 1020.24 1020.39 1020.49 1020.39 1020.46 1020.52 1020.30 1020.45 1020.48 1020.42 1020.46 1020.53 1020.53 1020.48 1020.53 1020.77 1020.60 1020.34 1020.34 1020.06 1020.02 1020.15 1020.25 1020.38 1020.05 1020.17 1020.03 1019.97 1020.03 1020.09 1020.14 1020.03
1017.72 1018.11 1018.29 1018.47 1018.71 1019.09 1019.44 1019.55 1019.76 1020.10 1020.17 1020.29 1020.37 1020.52 1020.65 1020.75 1020.86 1020.86 1020.81 1020.99 1020.91 1021.00 1020.99 1020.81 1020.87 1020.97 1021.04 1020.91 1020.84 1020.77 1020.47 1020.43 1020.65 1020.76 1020.89 1020.73 1020.69 1020.55 1020.65 1020.67 1020.63 1020.38 1020.45
1017.69 1018.10 1018.15 1018.49 1018.71 1019.03 1019.43 1019.76 1019.87 1020.11 1020.33 1020.52 1020.65 1020.73 1020.84 1020.84 1020.97 1021.09 1021.33 1021.47 1021.39 1021.26 1021.43 1021.33 1021.39 1021.42 1021.26 1021.23 1021.33 1021.18 1021.18 1020.97 1021.27 1021.27 1021.37 1021.26 1021.18 1020.99 1020.83 1020.88 1020.95 1020.99 1020.93
1017.68 1017.98 1018.20 1018.51 1018.82 1019.10 1019.42 1019.72 1020.04 1020.28 1020.48 1020.68 1020.97 1021.00 1021.13 1021.30 1021.42 1021.52 1021.62 1021.73 1021.77 1021.87 1021.86 1021.75 1021.77 1021.72 1021.68 1021.61 1021.60 1021.59 1021.51 1021.41 1021.77 1021.90 1022.01 1021.80 1021.47 1021.23 1021.08 1021.21 1021.39 1021.29 1021.30
1017.57 1017.95 1018.16 1018.48 1018.85 1019.02 1019.40 1019.72 1019.97 1020.34 1020.64 1020.96 1021.12 1021.16 1021.26 1021.47 1021.70 1021.77 1021.94 1021.99 1022.00 1022.12 1022.05 1022.02 1021.95 1021.96 1021.90 1021.85 1021.89 1021.91 1021.83 1021.84 1022.29 1022.36 1022.24 1022.04 1021.85 1021.65 1021.55 1021.56 1021.71 1021.75 1021.71
1017.49 1017.95 1018.31 1018.67 1018.93 1019.11 1019.31 1019.54 1020.00 1020.26 1020.69 1021.03 1021.23 1021.36 1021.49 1021.72 1021.87 1021.96 1021.93 1022.01 1022.13 1022.18 1022.13 1022.02 1022.06 1022.06 1022.10 1022.19 1022.13 1022.04 1022.00 1022.01 1022.46 1022.41 1022.27 1022.28 1021.94 1021.81 1021.89 1022.01 1022.05 1021.99 1022.06
1017.48 1017.83 1018.42 1018.81 1018.98 1019.25 1019.41 1019.64 1019.92 1020.24 1020.66 1020.96 1021.23 1021.43 1021.59 1021.73 1021.86 1021.96 1022.12 1022.13 1022.20 1022.20 1022.08 1022.07 1022.23 1022.18 1022.27 1022.31 1022.24 1022.17 1022.06 1022.05 1022.34 1022.47 1022.39 1022.28 1022.02 1021.94 1022.05 1022.19 1022.20 1022.25 1022.28
1017.52 1017.77 1018.15 1018.60 1018.99 1019.28 1019.55 1019.65 1019.89 1020.23 1020.56 1020.87 1021.18 1021.40 1021.57 1021.85 1021.96 1022.03 1022.09 1022.05 1022.09 1022.07 1022.15 1022.20 1022.23 1022.24 1022.25 1022.27 1022.22 1022.08 1022.01 1022.21 1022.24 1022.34 1022.33 1022.12 1022.13 1022.10 1022.17 1022.31 1022.40 1022.47 1022.51
1017.32 1017.60 1017.84 1018.19 1018.64 1019.07 1019.23 1019.65 1020.03 1020.21 1020.53 1020.87 1021.17 1021.40 1021.61 1021.93 1022.07 1022.01 1021.90 1021.92 1021.97 1022.01 1022.13 1022.09 1022.09 1022.16 1022.15 1022.37 1022.24 1021.99 1022.15 1022.10 1022.12 1022.16 1022.21 1022.02 1022.07 1022.19 1022.24 1022.32 1022.46 1022.57 1022.63
1016.69 1017.23 1017.55 1017.78 1018.16 1018.54 1018.85 1019.49 1019.98 1020.25 1020.57 1020.81 1020.98 1021.16 1021.37 1021.70 1021.79 1021.93 1021.95 1022.01 1022.09 1021.99 1022.22 1022.15 1022.29 1022.28 1022.21 1022.16 1022.05 1022.10 1021.97 1021.98 1021.97 1022.01 1021.91 1021.88 1021.98 1022.14 1022.22 1022.26 1022.29 1022.42 1022.55
1016.19 1016.42 1016.99 1017.18 1017.73 1018.15 1018.55 1019.13 1019.58 1019.97 1020.32 1020.65 1020.77 1020.90 1021.35 1021.66 1021.80 1021.73 1021.87 1022.07 1022.14 1022.09 1022.33 1022.27 1022.37 1022.11 1022.00 1021.84 1021.81 1021.76 1021.69 1021.71 1021.75 1021.85 1021.90 1021.77 1021.83 1021.96 1022.02 1022.09 1022.14 1022.24 1022.30
1015.71 1015.96 1016.28 1016.81 1017.23 1017.69 1018.18 1018.71 1019.14 1019.52 1019.84 1020.10 1020.38 1020.60 1020.89 1021.06 1021.25 1021.51 1021.72 1021.85 1021.94 1021.92 1022.01 1021.96 1021.98 1021.88 1021.85 1021.76 1021.60 1021.56 1021.49 1021.52 1021.56 1021.74 1021.84 1021.65 1021.67 1021.78 1021.84 1021.93 1022.00 1022.06 1022.11
1014.88 1015.30 1015.68 1016.21 1016.66 1017.16 1017.77 1018.30 1018.65 1019.00 1019.33 1019.70 1019.93 1020.09 1020.28 1020.64 1021.04 1021.28 1021.42 1021.50 1021.60 1021.64 1021.62 1021.77 1021.81 1021.81 1021.76 1021.67 1021.48 1021.35 1021.34 1021.35 1021.36 1021.52 1021.69 1021.64 1021.55 1021.68 1021.71 1021.81 1021.88 1021.92 1021.98
1013.87 1014.47 1015.13 1015.72 1016.19 1016.87 1017.35 1017.76 1018.22 1018.59 1018.89 1019.34 1019.64 1019.78 1020.01 1020.33 1020.69 1020.78 1021.18 1021.34 1021.30 1021.43 1021.49 1021.59 1021.64 1021.72 1021.82 1021.64 1021.59 1021.37 1021.28 1021.19 1021.19 1021.26 1021.43 1021.55 1021.59 1021.61 1021.65 1021.72 1021.82 1021.82 1021.87
1013.20 1013.85 1014.51 1015.12 1015.84 1016.50 1017.10 1017.44 1017.80 1018.24 1018.57 1018.92 1019.25 1019.50 1019.71 1019.96 1020.27 1020.62 1020.96 1021.08 1021.10 1021.33 1021.48 1021.68 1021.85 1021.91 1021.85 1021.80 1021.67 1021.47 1021.27 1021.05 1020.98 1021.12 1021.24 1021.43 1021.57 1021.61 1021.57 1021.69 1021.75 1021.73 1021.86
1012.14 1013.10 1014.02 1014.58 1015.27 1016.02 1016.71 1017.18 1017.56 1017.82 1018.30 1018.55 1018.84 1019.12 1019.32 1019.58 1019.84 1020.30 1020.60 1020.75 1020.92 1021.22 1021.41 1021.58 1021.81 1021.90 1021.89 1021.77 1021.59 1021.39 1021.29 1021.12 1021.01 1020.99 1021.13 1021.23 1021.36 1021.51 1021.60 1021.54 1021.55 1021.65 1021.80
1011.43 1012.26 1013.18 1014.07 1014.84 1015.61 1016.42 1017.08 1017.47 1017.73 1017.97 1018.17 1018.46 1018.68 1018.84 1019.16 1019.45 1019.87 1020.22 1020.46 1020.75 1021.12 1021.32 1021.50 1021.69 1021.77 1021.73 1021.63 1021.50 1021.38 1021.29 1021.11 1021.04 1021.15 1021.11 1021.09 1021.18 1021.22 1021.31 1021.43 1021.49 1021.60 1021.61
1010.97 1011.85 1012.69 1013.63 1014.41 1015.18 1016.01 1016.83 1017.41 1017.63 1017.81 1018.04 1018.04 1018.15 1018.44 1018.70 1019.03 1019.47 1019.87 1020.17 1020.47 1020.84 1020.98 1021.24 1021.44 1021.61 1021.63 1021.42 1021.74 1021.62 1021.47 1021.25 1021.14 1021.11 1021.03 1021.13 1021.09 1021.01 1021.08 1021.16 1021.31 1021.47 1021.48
1010.41 1011.22 1012.14 1012.87 1013.74 1014.42 1015.15 1015.85 1016.46 1016.91 1017.28 1017.51 1017.69 1017.82 1017.99 1018.25 1018.53 1018.97 1019.37 1019.77 1020.00 1020.50 1020.74 1020.93 1021.16 1021.52 1021.49 1021.26 1021.66 1022.05 1021.95 1021.65 1021.25 1021.05 1021.01 1021.03 1020.94 1020.83 1020.81 1020.81 1020.92 1021.08 1021.27
1010.17 1010.83 1011.47 1012.20 1013.01 1013.79 1014.54 1015.44 1016.16 1016.73 1017.07 1017.34 1017.38 1017.52 1017.50 1017.68 1017.99 1018.33 1018.77 1019.16 1019.53 1019.91 1020.22 1020.41 1020.64 1021.01 1021.29 1021.12 1021.09 1021.27 1021.67 1021.56 1021.39 1021.05 1020.89 1020.76 1020.69 1020.81 1020.64 1020.56 1020.64 1020.69 1020.97
1009.50 1010.05 1010.77 1011.52 1012.39 1013.20 1013.94 1014.74 1015.42 1015.97 1016.52 1016.51 1016.68 1017.01 1017.17 1017.22 1017.50 1017.78 1018.11 1018.50 1018.85 1019.29 1019.65 1019.74 1019.98 1020.39 1020.83 1021.11 1021.04 1020.82 1020.80 1020.91 1021.17 1021.42 1020.94 1020.70 1020.50 1020.44 1020.48 1020.48 1020.48 1020.45 1020.69
1009.98 1009.86 1010.41 1011.17 1011.86 1012.59 1013.43 1014.00 1014.85 1015.50 1015.89 1016.06 1016.33 1016.62 1016.79 1016.90 1016.96 1017.24 1017.54 1017.91 1018.33 1018.60 1018.92 1019.17 1019.44 1019.83 1020.10 1020.49 1020.69 1020.66 1020.74 1020.84 1020.87 1021.14 1021.22 1020.78 1020.62 1020.10 1020.10 1020.10 1020.15 1020.30 1020.42
1009.80 1010.27 1010.48 1011.13 1011.71 1012.13 1012.79 1013.49 1014.09 1014.77 1015.37 1015.89 1016.11 1016.30 1016.40 1016.53 1016.69 1016.70 1016.91 1017.23 1017.50 1017.86 1018.18 1018.42 1018.73 1019.09 1019.43 1019.71 1019.92 1020.18 1020.29 1020.44 1020.67 1020.94 1021.12 1020.79 1020.52 1019.98 1019.71 1019.83 1019.94 1020.03 1020.08
Wind_Speed
5 7 17 14 12 12 12 11 11 10 12 11 12 13 12 14 12 14 14 14 13 17 16 16 18 17 17 17 17 18 17 18 20 18 19 20 21 19 20 21 19 15 20
10 8 18 15 15 14 12 11 12 13 11 12 14 13 14 12 14 14 13 13 14 16 14 17 16 18 16 16 14 16 19 18 19 21 18 17 19 19 19 17 18 15 19
12 10 12 16 15 13 14 11 11 13 12 11 11 11 11 11 12 13 13 12 13 15 15 15 15 16 15 14 14 16 14 19 18 18 15 6 8 19 17 19 17 16 18
14 8 7 16 14 14 13 12 12 11 10 11 11 11 11 12 10 14 13 12 12 13 13 14 15 16 14 13 15 15 14 17 20 20 8 9 9 17 19 19 18 17 14
13 8 7 16 14 14 13 13 12 11 11 10 10 9 10 10 11 11 12 11 11 12 12 13 14 13 13 13 13 14 12 18 18 12 8 7 7 15 16 18 15 17 17
14 10 12 16 16 16 14 10 12 10 11 10 10 9 9 10 11 11 10 9 10 11 10 11 12 12 12 12 11 12 13 18 14 8 7 7 6 14 17 16 16 17 16
13 12 11 17 16 15 14 13 11 10 11 10 9 8 8 9 8 8 8 8 8 8 8 9 9 10 10 10 9 10 13 13 7 6 6 5 7 15 16 15 14 15 16
14 11 10 16 16 15 15 12 12 11 10 9 7 7 8 8 7 7 7 7 7 6 7 7 8 8 8 8 8 7 10 10 6 6 5 4 10 12 13 13 13 13 13
13 10 6 7 12 14 14 15 13 12 10 9 7 7 6 6 5 5 6 6 6 6 5 5 6 6 6 5 5 5 6 7 5 4 5 3 9 10 11 11 10 11 11
11 12 8 7 6 7 6 13 13 12 10 9 8 7 6 6 5 5 4 5 4 3 3 3 3 3 2 1 1 0 2 4 2 5 3 3 6 8 9 9 8 9 9
11 12 11 9 7 6 6 7 13 14 11 10 8 8 6 3 4 5 5 5 2 1 0 1 1 2 3 2 3 2 1 1 0 3 2 7 5 5 6 6 7 7 7
12 13 13 12 11 8 8 7 5 4 4 5 5 6 5 5 5 6 6 6 5 4 4 4 5 5 3 2 3 5 1 3 2 3 3 7 5 4 2 4 4 4 5
9 11 13 13 13 12 9 6 3 3 4 4 7 6 5 4 4 3 3 1 2 5 2 4 4 3 3 3 3 3 3 3 2 2 4 7 6 4 3 2 2 2 2
10 10 12 14 12 9 7 7 7 6 5 4 5 7 4 3 4 3 3 4 3 3 4 4 3 4 5 3 4 4 4 2 2 2 4 8 6 5 4 3 2 1 1
13 11 9 10 11 10 11 7 7 7 6 6 5 7 5 4 3 3 4 4 4 3 4 2 2 2 2 3 2 3 3 3 4 3 3 9 7 5 5 4 3 1 1
15 15 10 10 9 9 8 7 6 6 7 5 5 6 6 5 4 4 4 4 3 3 2 2 2 2 3 2 4 3 4 4 4 5 4 4 8 6 6 5 3 2 1
15 16 14 12 9 9 8 8 5 5 6 5 5 7 7 6 6 5 4 4 4 3 4 1 2 2 3 3 4 4 4 5 4 4 4 4 4 6 4 5 4 2 1
16 18 16 13 12 9 8 7 5 5 5 5 5 5 8 7 7 5 4 4 4 4 3 1 2 2 2 2 3 4 2 2 2 4 4 4 3 3 3 5 4 3 1
18 18 17 15 14 11 8 6 6 7 5 5 5 5 7 8 7 6 4 4 5 4 3 3 2 2 2 2 3 2 2 2 3 3 4 4 4 4 3 6 5 3 2
16 18 18 14 14 13 6 5 4 4 5 5 5 5 8 6 7 6 4 5 5 4 3 2 4 2 3 3 3 3 2 2 3 3 3 3 4 4 4 4 2 3 5
14 17 18 16 14 12 8 6 4 7 4 4 5 7 7 7 8 7 5 5 5 5 6 5 3 4 2 2 2 3 2 3 3 4 3 3 4 5 4 4 3 2 3
15 16 17 17 15 13 10 8 4 4 3 4 5 6 7 8 8 7 7 6 6 4 6 5 4 2 2 3 3 1 1 3 3 4 3 4 6 4 4 4 4 5 4
13 15 17 17 17 14 13 6 2 2 1 3 4 5 7 8 8 8 8 7 6 5 5 5 5 6 4 2 6 4 2 4 1 1 5 4 5 4 4 3 5 5 5
15 13 15 16 16 14 13 12 12 10 8 5 5 4 6 8 8 8 8 8 7 5 6 6 6 5 4 4 1 4 2 3 3 1 2 4 4 5 6 4 4 4 5
4 11 12 14 15 14 14 13 10 6 5 4 4 8 7 6 8 8 9 8 8 6 6 7 6 7 5 4 4 2 2 1 1 2 3 3 2 4 5 5 5 4 5
5 5 8 11 12 12 13 9 13 10 8 6 5 6 5 5 6 8 10 9 9 8 8 8 7 8 7 5 4 4 4 4 4 3 2 3 3 4 4 4 5 5 5
Wind_Direction
170 159 147 146 143 139 121 118 116 103 85 92 84 82 85 81 80 78 82 67 64 64 74 75 71 70 66 63 60 62 72 71 71 67 69 66 64 66 64 61 57 54 57
145 144 148 140 135 139 131 123 116 117 114 87 109 91 87 72 83 79 78 73 67 65 72 70 75 73 71 66 71 70 84 76 78 76 71 63 69 65 66 67 66 62 61
137 154 146 155 130 131 129 122 117 108 106 108 89 92 94 87 81 81 82 86 74 71 59 76 72 75 71 78 78 77 71 66 64 63 62 59 66 70 72 64 63 66 62
139 146 160 149 144 141 134 137 135 124 110 108 112 102 96 102 87 86 81 72 77 72 74 74 71 68 75 80 79 66 39 74 71 63 42 31 69 70 66 67 67 69 72
141 153 173 152 152 147 141 140 131 126 121 115 120 108 99 91 96 84 76 82 78 77 75 70 70 73 70 71 68 57 46 65 73 64 47 48 61 80 79 68 73 71 78
148 151 169 153 151 157 148 138 142 134 130 125 116 110 111 86 79 87 88 83 77 77 77 75 72 75 71 64 64 60 44 73 74 64 48 35 90 69 80 77 73 80 70
142 150 156 158 155 152 156 155 146 141 138 120 132 114 104 102 100 95 92 91 87 88 83 81 78 74 73 69 58 49 46 47 77 76 70 43 40 72 82 77 73 66 78
142 155 156 160 159 162 160 152 154 148 149 142 136 121 121 113 109 106 106 98 97 95 91 84 77 72 69 67 62 49 52 43 66 86 71 50 85 80 73 75 80 72 73
146 148 137 152 167 173 169 166 162 161 151 151 149 145 140 139 124 113 104 104 102 99 91 76 65 76 71 69 65 49 41 31 72 135 105 62 85 87 85 80 72 77 75
149 150 151 157 173 156 166 167 166 157 160 168 164 163 172 169 161 148 141 115 112 105 81 62 48 71 104 138 131 4 6 1 31 129 121 116 87 88 87 83 80 74 69
155 159 162 160 167 158 170 177 179 177 176 173 173 179 188 188 223 194 192 171 162 145 204 266 268 257 240 249 259 246 34 301 251 137 140 121 111 92 93 91 83 76 76
162 170 170 168 175 172 176 168 160 168 147 157 168 198 194 201 216 217 194 190 199 210 233 247 250 252 264 241 265 286 239 264 262 147 176 140 133 130 122 118 108 94 82
175 170 176 174 181 179 175 167 164 166 172 183 191 202 204 198 201 177 173 227 224 238 252 267 290 281 259 216 219 238 244 220 209 173 190 164 153 165 167 156 147 146 125
179 185 171 179 181 172 159 170 174 174 187 192 199 206 167 184 199 185 190 197 210 228 229 237 243 246 251 282 250 243 222 236 204 155 205 181 176 186 187 194 189 188 175
182 186 186 168 173 160 165 173 179 182 187 195 191 186 177 178 187 185 196 187 201 191 209 212 245 305 317 301 264 235 255 225 221 178 189 196 190 197 199 206 209 221 259
182 186 179 178 169 165 161 174 181 176 184 179 178 183 179 173 200 196 198 199 200 199 194 208 212 234 277 303 304 266 250 241 213 182 186 203 196 205 203 207 209 220 288
187 181 179 176 170 171 173 179 169 186 174 175 181 184 184 185 208 197 195 196 199 195 186 198 299 318 294 304 281 291 274 240 210 181 165 187 207 209 204 205 208 199 259
177 182 179 178 176 173 175 176 177 179 177 180 177 180 188 196 200 198 189 196 196 165 172 172 241 267 272 290 294 289 304 200 177 148 145 152 164 187 208 196 195 194 234
176 177 180 178 177 177 177 172 180 175 174 185 177 183 192 198 198 179 186 193 180 174 174 196 229 195 237 287 279 296 293 171 159 143 149 152 168 157 184 211 183 182 195
173 174 176 177 178 176 168 163 177 178 189 184 191 193 195 193 191 181 183 200 177 174 193 198 212 227 206 225 292 314 284 223 156 172 190 167 180 172 176 188 173 216 200
164 169 175 174 177 172 180 176 176 195 188 208 200 200 200 191 188 181 189 197 183 184 196 195 194 209 278 213 47 339 311 259 218 209 198 188 195 202 208 191 187 203 199
168 170 173 179 172 180 183 187 172 167 190 187 198 210 199 192 188 183 183 197 193 181 200 202 182 184 237 192 156 111 258 325 311 237 215 206 206 204 220 217 190 184 173
168 169 176 179 180 179 180 160 128 122 151 184 204 209 208 191 190 187 189 188 197 190 198 198 185 181 203 265 216 157 110 225 191 246 235 224 198 209 223 207 206 170 164
187 174 171 176 179 180 170 180 190 199 199 206 195 200 207 198 195 191 191 191 195 188 201 203 196 186 153 212 279 225 222 156 176 302 290 249 220 211 217 220 212 184 169
218 178 173 171 178 178 182 182 186 194 200 183 179 194 206 209 203 197 195 194 201 197 202 197 193 198 187 175 191 175 217 273 196 145 227 266 296 239 226 211 196 188 181
191 184 164 167 179 173 180 178 188 189 182 185 198 199 203 207 212 208 200 201 203 202 203 206 204 196 199 200 192 205 182 174 198 179 211 239 219 254 220 210 197 197 186